THORAD AGENA D DEB, 4614

Orbit data source: Space-Track

THORAD AGENA D DEB, 4614 is space debris in SSO originally from a launch on Wed, 08 Apr 1970 UTC launched from the Air Force Western Test Range (AFWTR). Debris objects in space refer to the collection of defunct objects orbiting the Earth. Examples of debris include non-operational satellites, rocket bodies, and fragments generated from explosions, collisions, or faulty payload assembly.

Loading next visibility...
Identifier
4614, 1970-025S
Orbit
SSO
Country
Flag of USUS
Related business
Manufacturer
Unknown
Mission
Spacecraft
Bus & Motor
Unknown
Mass
Unknown
Launch date (UTC)
1970-04-08 (56 years ago)
Launch vehicle
Unknown
Launch site
Air Force Western Test Range (AFWTR)
Object type
Payload
Rocket body
Debris
Shape & HBR
Unknown shape, 0.5 m
Radar Cross Section
Medium (>0.1 m² and <1 m²)

Expand to show TLE details & history
Last TLE update: 15 hours ago

TLE from 15 hours ago
0 THORAD AGENA D DEB
1 04614U 70025S   25292.21777003  .00001769  00000-0  13889-2 0  9990
2 04614 100.1119 289.2193 0079321  22.8717 337.5942 13.92010144793022
Epoch: 2025-10-19T05:13Z
TLE epoch observation values (Epoch: 2025-10-19T05:13:35.330Z)
Latitude
0.00006°
Longitude
-177.11552°
Altitude
870.95 km
Speed
7.444 km/s
True Right ascension
19h 16m 52s
True Declination
0° 00' 00"
Sunlit
Object was in daylight at epoch
Visualization orbit readout
Latitude
Unknown
Longitude
Unknown
Altitude
Unknown
Speed
Unknown
Apparent Right ascension
Unknown
Apparent Declination
Unknown
Sunlit
N/A
Visualization observer readout
Local Sidereal Time
15:33:42
Azimuth
Unknown
Elevation
Unknown
Doppler factor
Unknown
Orbital elements
Apogee altitude
976.743 km
Perigee altitude
860.982 km
Semi-major axis
7,296.999 km
Eccentricity
0.00793
Inclination
100.1119°
RAAN
289.2193°
Arg. of periapsis
22.8717°
True anomaly
337.24454°
Mean anomaly
337.5942°
Eccentric anomaly
337.41969°
Mean motion
3.48198 °/min
Orbital period
103.39 mins
BSTAR
0.0013889
Loading maneuver chart data...
Computing Atmospheric mass density...

Documentation

Showing up to 5 results
|